Wind_Speed
19 18 18 16 16 14 12 12 12 10 11 12 12 12 11 10 12 13 11 10 11 11 11 11 12 12 11 11 11 11 9 8 8 7 5 7 8 8 6 6 7 8
19 19 18 17 16 16 15 14 13 12 12 11 10 10 11 12 13 12 11 11 10 10 10 10 11 10 9 10 11 10 9 9 9 7 5 7 7 8 6 6 7 8
20 19 19 18 17 16 15 14 14 14 13 12 11 10 10 12 14 13 13 12 10 9 10 10 10 10 9 9 9 8 8 7 8 8 8 9 7 7 7 6 7 7
21 19 19 17 15 15 14 13 14 14 13 13 13 12 10 10 12 13 13 13 11 11 11 10 10 9 9 9 8 7 7 7 8 9 10 9 8 8 7 7 8 7
22 20 18 17 15 15 14 14 14 14 13 14 13 13 12 11 11 12 13 14 14 14 13 11 10 10 10 9 8 8 7 7 6 7 8 8 8 8 6 7 8 7
22 21 19 18 17 16 15 15 15 14 14 14 13 13 14 14 13 12 13 14 13 13 13 11 10 10 10 10 9 8 8 7 6 8 9 8 8 8 7 8 10 9
21 21 20 19 17 16 16 16 15 15 14 14 13 13 14 14 14 13 14 13 12 12 12 11 10 9 10 11 9 8 9 9 10 11 11 9 9 9 9 9 10 10
19 20 20 19 17 16 16 16 15 16 15 15 14 14 14 14 14 14 14 13 12 12 12 11 11 11 12 12 10 9 10 10 10 11 11 10 10 10 10 9 9 10
19 19 19 18 17 17 16 16 15 15 15 15 15 15 15 15 14 14 14 13 13 13 12 12 13 14 14 13 12 12 12 11 10 10 12 13 11 11 11 11 10 10
19 19 18 18 18 17 16 16 15 15 16 16 15 15 16 17 16 15 15 15 16 15 14 14 15 15 14 13 13 13 13 13 12 12 13 15 13 11 11 11 10 11
19 19 18 18 18 17 16 16 16 15 16 17 17 16 15 17 19 19 18 18 18 17 16 16 16 16 15 14 12 12 13 13 13 13 14 15 13 12 11 11 12 13
19 19 18 18 18 18 17 16 16 16 16 18 19 18 16 16 18 20 20 20 19 17 16 17 17 16 16 15 13 13 13 14 14 14 14 14 13 13 13 13 14 13
20 19 19 18 18 18 17 17 17 17 16 17 18 19 19 18 17 18 20 19 19 18 17 16 16 15 16 16 15 15 15 14 15 16 16 15 14 14 14 14 14 13
21 19 18 18 18 18 18 17 17 17 17 17 17 17 19 19 18 18 19 19 19 18 17 15 15 16 17 17 17 16 15 14 15 17 17 16 15 15 14 14 15 15
22 19 18 19 20 20 20 19 17 17 17 17 18 18 18 18 19 19 18 19 18 17 17 16 16 16 17 17 17 16 15 14 14 17 18 17 15 15 14 14 16 16
21 21 20 22 23 23 23 23 21 19 19 19 19 19 19 19 20 20 19 19 18 17 17 16 15 17 18 18 16 16 15 15 16 17 18 18 17 16 14 14 15 14
22 23 22 22 23 23 23 24 24 23 23 22 21 22 22 19 18 17 17 18 18 17 17 17 17 19 19 18 17 16 16 17 17 16 17 18 17 16 15 14 13 11
22 23 22 23 24 24 23 23 24 24 25 24 21 22 22 19 17 16 16 17 17 16 16 18 19 18 17 16 17 17 17 17 16 15 15 16 16 16 16 14 12 10
22 21 21 23 24 24 22 21 21 23 24 23 20 19 19 18 18 19 18 17 17 16 16 18 19 18 16 15 15 15 17 17 16 15 16 16 14 15 16 14 12 12
22 21 21 22 22 23 23 22 22 22 22 23 21 19 19 18 18 19 20 18 17 17 16 16 18 19 18 17 15 13 14 16 16 16 16 16 15 15 16 15 13 12
22 22 22 22 21 22 23 23 22 21 21 23 22 21 20 19 17 18 19 18 17 17 16 15 16 17 18 17 16 13 12 14 15 16 15 15 15 16 16 16 13 10
22 22 22 21 21 21 22 22 21 19 20 20 20 21 21 20 18 16 16 16 16 16 16 17 17 17 17 16 16 16 15 14 13 13 14 14 15 16 17 16 14 11
20 20 20 20 20 21 22 23 21 20 19 19 18 18 19 19 19 17 16 16 15 15 16 17 17 18 18 17 16 16 16 15 13 12 12 13 15 16 16 16 15 14
18 19 20 20 21 21 21 21 21 20 20 19 17 15 15 16 17 17 16 16 15 15 15 16 17 18 20 19 17 16 15 15 14 13 12 12 14 15 15 15 15 15
17 18 19 20 20 21 20 19 18 19 19 20 19 17 14 15 16 17 17 17 16 17 18 17 18 19 20 19 18 17 16 15 15 13 11 11 12 13 14 15 15 15
16 17 17 17 17 17 18 18 17 17 19 21 21 20 17 16 16 17 18 17 17 18 19 20 19 18 18 17 16 16 16 15 14 12 11 11 12 13 14 15 15 15
Wind_Direction
195 196 196 198 196 192 194 192 188 194 196 194 196 196 193 184 182 189 190 189 196 204 206 197 191 193 197 200 200 202 209 212 214 213 217 226 210 200 225 235 214 222
198 199 200 201 198 195 196 191 190 197 200 197 198 203 197 185 187 193 195 201 203 200 201 197 192 195 199 199 202 208 214 216 212 209 234 249 227 208 214 230 237 237
200 201 201 201 200 201 199 195 196 195 193 195 199 205 207 197 194 200 204 207 207 203 204 203 199 201 205 204 205 210 217 221 210 203 225 244 235 214 214 237 246 241
201 203 203 200 200 202 199 199 204 199 194 198 199 198 208 213 205 203 207 206 202 203 209 213 208 204 210 215 215 215 221 232 223 211 218 235 240 223 217 235 240 232
202 201 200 197 197 201 199 200 206 203 199 202 201 197 202 213 212 207 212 213 206 202 208 216 214 209 215 220 220 219 221 235 247 241 234 237 246 240 232 240 244 246
204 202 201 198 197 200 201 202 205 203 204 206 205 205 205 208 209 208 216 219 212 208 210 216 218 216 221 226 226 224 222 227 243 254 252 250 251 249 247 244 239 241
205 205 205 201 198 202 204 205 206 205 206 208 208 211 213 213 209 207 217 223 219 215 214 220 229 226 228 239 244 238 232 228 230 241 249 255 262 258 252 250 243 239
204 207 207 203 200 204 206 206 208 208 208 209 210 212 213 216 215 210 213 220 222 220 217 223 232 227 224 236 249 250 248 242 240 256 267 264 262 263 261 262 256 249
203 206 207 204 203 206 208 208 210 210 210 210 212 215 212 213 220 221 217 217 222 225 222 223 229 229 227 230 234 241 248 248 241 251 267 268 265 267 268 267 264 262
203 205 206 206 205 208 209 210 211 213 213 212 210 217 220 216 215 219 218 218 222 224 223 225 229 232 235 234 232 238 247 251 248 242 250 260 263 265 268 269 269 268
204 205 206 208 208 209 211 212 213 215 216 216 210 212 223 224 220 218 218 220 223 223 223 227 229 232 238 238 236 244 251 255 259 258 257 260 260 260 262 262 259 260
206 207 206 209 210 210 213 214 215 217 218 220 216 212 215 225 230 229 226 225 227 227 227 230 233 237 242 242 237 240 249 255 258 262 264 265 264 264 263 264 263 259
205 208 208 209 211 212 213 215 217 218 218 220 222 220 218 222 231 234 234 231 229 231 233 235 241 245 246 248 244 241 244 249 254 257 259 260 263 264 262 265 267 261
204 208 211 211 214 216 215 217 220 221 220 220 224 226 224 223 226 231 237 237 233 234 234 233 238 244 248 251 249 246 245 246 252 255 256 257 259 259 259 260 263 262
205 208 212 211 213 216 215 217 222 223 225 226 228 232 233 231 229 230 234 238 237 235 232 230 234 239 248 252 249 248 246 242 246 253 257 261 260 259 258 259 262 265
206 208 213 213 214 215 214 214 216 219 220 222 226 232 235 235 230 228 233 237 235 233 231 230 231 232 238 246 249 252 251 247 247 253 258 261 262 265 263 257 261 271
209 210 214 218 219 220 220 217 217 219 219 220 222 222 223 228 230 231 237 238 235 233 228 226 229 232 238 245 250 255 258 257 256 259 261 257 256 263 265 263 269 283
217 216 218 222 222 223 225 224 224 225 226 229 234 232 229 235 243 246 247 244 243 239 226 225 235 240 241 245 251 257 258 258 260 262 262 260 257 259 263 268 273 278
219 219 221 224 225 226 226 225 227 230 230 233 242 245 241 241 242 243 242 240 245 245 235 236 247 250 248 249 255 260 257 257 262 263 262 262 258 256 260 266 271 276
216 219 223 225 227 229 229 229 233 237 237 237 240 243 244 244 240 240 241 240 242 245 243 245 253 255 253 254 260 264 259 256 258 261 263 262 255 254 260 261 266 278
214 219 223 223 226 230 233 235 238 241 243 243 242 241 245 249 246 242 242 241 240 242 245 249 256 258 255 254 261 269 266 259 257 259 262 262 256 254 258 259 260 270
213 218 223 224 227 232 236 237 238 241 244 244 243 244 246 250 249 243 238 236 236 241 249 253 257 259 259 260 265 268 265 263 263 262 260 258 254 251 254 259 261 262
214 218 222 225 229 234 238 239 238 239 240 239 242 246 246 247 247 243 236 234 236 244 254 258 258 260 262 264 266 268 267 264 264 263 259 254 252 249 250 254 256 257
216 219 220 223 227 231 234 237 237 236 234 233 237 240 242 246 248 245 239 236 239 245 253 258 260 261 261 261 264 267 267 264 262 260 256 253 252 250 248 249 250 253
219 222 223 224 226 228 232 234 235 234 230 228 228 226 228 238 244 244 242 241 242 246 252 255 257 259 262 263 264 262 261 264 262 256 251 250 253 255 255 251 246 245
225 225 224 224 225 228 230 230 231 229 227 226 226 223 222 227 235 241 244 242 239 240 244 248 253 260 264 267 267 263 260 259 256 249 244 244 246 247 245 246 244 240
Height
1552 1554 1555 1557 1558 1560 1561 1563 1564 1566 1567 1568 1569 1570 1571 1572 1573 1574 1575 1576 1578 1579 1580 1582 1583 1584 1585 1586 1587 1588 1589 1589 1589 1589 1590 1591 1591 1592 1592 1593 1593 1594
1551 1553 1554 1556 1557 1559 1560 1562 1564 1565 1566 1568 1569 1570 1571 1571 1572 1573 1574 1575 1577 1578 1579 1581 1582 1583 1584 1585 1586 1587 1587 1588 1588 1589 1590 1590 1590 1591 1592 1592 1593 1594
1551 1552 1554 1555 1557 1558 1560 1561 1563 1564 1566 1567 1568 1569 1570 1571 1572 1573 1574 1575 1576 1577 1578 1579 1581 1582 1583 1584 1584 1585 1586 1586 1587 1588 1589 1589 1589 1590 1591 1592 1592 1593
1550 1551 1553 1555 1557 1558 1560 1561 1563 1564 1565 1567 1568 1569 1570 1571 1571 1572 1573 1574 1575 1576 1577 1578 1579 1580 1581 1582 1583 1584 1584 1585 1586 1587 1587 1588 1588 1589 1590 1591 1591 1592
1549 1551 1553 1555 1557 1558 1560 1561 1563 1564 1565 1567 1568 1569 1570 1570 1571 1572 1573 1573 1574 1576 1577 1577 1578 1579 1580 1581 1582 1582 1583 1584 1585 1585 1586 1587 1587 1588 1588 1589 1590 1591
1549 1551 1553 1554 1556 1558 1560 1561 1563 1564 1565 1566 1567 1569 1569 1570 1571 1572 1572 1573 1574 1575 1576 1577 1577 1578 1579 1579 1580 1581 1582 1583 1584 1584 1584 1585 1586 1586 1587 1588 1589 1589
1549 1550 1552 1554 1556 1558 1559 1561 1562 1563 1565 1566 1567 1568 1569 1570 1571 1572 1573 1573 1574 1575 1576 1576 1577 1578 1578 1579 1579 1580 1581 1582 1582 1583 1583 1584 1585 1585 1586 1586 1587 1588
1549 1550 1552 1554 1556 1558 1559 1561 1562 1563 1564 1566 1567 1568 1569 1570 1570 1571 1573 1573 1574 1575 1575 1576 1577 1577 1578 1578 1579 1579 1580 1580 1581 1581 1582 1583 1583 1584 1585 1585 1586 1587
1549 1550 1551 1553 1555 1557 1559 1560 1562 1562 1564 1565 1566 1567 1568 1569 1570 1571 1572 1573 1574 1575 1575 1576 1577 1577 1577 1578 1578 1579 1579 1580 1581 1581 1581 1581 1582 1583 1583 1584 1585 1585
1548 1549 1551 1552 1554 1556 1558 1559 1561 1562 1563 1564 1565 1566 1567 1568 1569 1569 1570 1571 1572 1573 1574 1575 1575 1576 1576 1577 1578 1578 1579 1579 1579 1580 1580 1580 1581 1582 1582 1583 1584 1585
1547 1548 1550 1552 1553 1555 1557 1558 1559 1560 1561 1562 1563 1565 1565 1566 1567 1568 1569 1569 1570 1571 1572 1573 1574 1574 1575 1576 1577 1578 1578 1578 1579 1579 1580 1580 1581 1581 1582 1583 1583 1584
1546 1547 1549 1551 1552 1554 1555 1557 1558 1559 1560 1560 1561 1563 1564 1564 1565 1566 1567 1567 1569 1570 1571 1571 1572 1573 1574 1574 1576 1577 1577 1578 1578 1579 1579 1579 1580 1581 1581 1582 1582 1583
1545 1547 1548 1550 1551 1553 1554 1556 1556 1558 1559 1559 1559 1561 1562 1563 1564 1564 1565 1566 1567 1568 1569 1570 1571 1571 1572 1573 1574 1574 1575 1576 1577 1577 1577 1578 1579 1579 1580 1581 1581 1581
1544 1546 1547 1549 1551 1552 1553 1555 1556 1557 1558 1558 1559 1559 1560 1561 1562 1563 1563 1564 1565 1566 1567 1569 1569 1570 1571 1571 1572 1572 1573 1574 1575 1575 1575 1576 1577 1578 1578 1579 1579 1579
1544 1546 1547 1548 1549 1549 1551 1553 1554 1556 1557 1558 1558 1559 1560 1561 1562 1563 1563 1563 1564 1565 1566 1567 1568 1569 1569 1569 1570 1571 1571 1573 1574 1573 1573 1575 1576 1576 1577 1578 1578 1578
1543 1544 1545 1545 1546 1547 1549 1551 1552 1554 1555 1555 1556 1557 1558 1559 1560 1562 1563 1563 1563 1564 1565 1566 1566 1567 1567 1567 1568 1569 1571 1572 1572 1572 1572 1574 1574 1575 1575 1575 1575 1576
1541 1543 1543 1543 1545 1547 1549 1550 1551 1552 1552 1552 1553 1553 1554 1554 1556 1559 1560 1560 1561 1562 1563 1564 1564 1565 1565 1566 1567 1569 1570 1570 1570 1570 1571 1572 1573 1573 1572 1572 1574 1576
1538 1540 1541 1542 1543 1545 1547 1548 1549 1550 1551 1551 1552 1553 1553 1554 1557 1559 1559 1559 1561 1563 1563 1563 1563 1563 1564 1565 1566 1567 1568 1569 1569 1569 1570 1570 1571 1571 1570 1570 1572 1574
1536 1537 1539 1540 1541 1543 1545 1546 1547 1548 1549 1550 1551 1552 1553 1555 1556 1556 1556 1559 1561 1562 1562 1562 1562 1562 1563 1564 1565 1566 1567 1567 1567 1568 1568 1569 1569 1569 1568 1569 1569 1569
1535 1535 1537 1538 1540 1542 1543 1544 1546 1547 1548 1549 1550 1550 1552 1553 1554 1553 1554 1556 1559 1560 1561 1561 1562 1562 1562 1563 1564 1564 1565 1565 1566 1566 1566 1567 1567 1567 1566 1566 1566 1566
1534 1534 1536 1537 1539 1540 1541 1543 1544 1545 1547 1547 1548 1548 1549 1550 1552 1553 1553 1554 1556 1558 1560 1561 1562 1562 1562 1561 1562 1562 1563 1564 1564 1564 1565 1565 1565 1565 1565 1564 1565 1565
1533 1534 1535 1536 1537 1538 1539 1540 1542 1543 1544 1545 1546 1546 1547 1548 1550 1552 1552 1552 1554 1556 1559 1560 1561 1562 1561 1560 1560 1560 1561 1562 1562 1562 1563 1563 1562 1563 1563 1563 1563 1564
1532 1533 1534 1534 1535 1535 1536 1538 1539 1541 1542 1543 1544 1544 1545 1546 1548 1549 1550 1551 1552 1554 1557 1559 1560 1561 1560 1559 1559 1559 1559 1560 1560 1560 1561 1561 1560 1560 1560 1561 1562 1562
1530 1531 1532 1532 1533 1533 1534 1535 1537 1539 1540 1542 1543 1543 1543 1544 1545 1546 1547 1548 1549 1551 1553 1555 1557 1558 1558 1558 1557 1557 1557 1558 1558 1558 1559 1559 1559 1558 1559 1560 1560 1560
1528 1530 1530 1530 1531 1532 1532 1533 1535 1536 1538 1540 1541 1542 1543 1543 1544 1544 1545 1545 1546 1548 1550 1552 1554 1555 1556 1556 1555 1555 1555 1556 1556 1557 1557 1558 1557 1557 1558 1558 1559 1559
1527 1528 1529 1529 1530 1530 1531 1532 1533 1534 1536 1537 1539 1541 1542 1543 1543 1544 1544 1544 1544 1546 1548 1550 1551 1552 1553 1553 1553 1553 1553 1554 1554 1555 1555 1556 1556 1556 1556 1556 1557 1557